Location: Unspecified
(0.0000°N, 0.0000°E)
Time: 16:21:14
(UTC+00:00)

Vanguard 3 - Pass Details

Date: 19 November 2019
Orbit: 508 x 3263 km, 33.3° (Epoch: 12 December)

Event Time Altitude Azimuth Distance (km) Brightness Sun altitude
Rises 12:06:50 0° 256° (WSW) 5,816 11.6 69.8°
Reaches altitude 10° 12:10:29 10° 262° (W) 5,129 11.5 69.6°
Maximum altitude 12:25:45 45° 329° (NNW) 3,851 11.1 68.2°
Drops below altitude 10° 12:44:20 10° 37° (NE) 6,072 11.5 65.8°
Sets 12:49:14 0° 43° (NE) 6,914 11.6 65.0°
